Year,Month,Day,Hour,Minute,Value (Times are PST for temperature in C)
2014,07,05,00,00,14.30
2014,07,05,00,01,14.30
2014,07,05,00,02,14.30
2014,07,05,00,03,14.30
2014,07,05,00,04,14.20
2014,07,05,00,05,14.20
2014,07,05,00,06,14.20
2014,07,05,00,07,14.20
2014,07,05,00,08,14.20
2014,07,05,00,09,14.20
2014,07,05,00,10,14.20
2014,07,05,00,11,14.20
2014,07,05,00,12,14.20
2014,07,05,00,13,14.10
2014,07,05,00,14,14.10
2014,07,05,00,15,14.10
2014,07,05,00,16,14.10
2014,07,05,00,17,14.10
2014,07,05,00,18,14.10
2014,07,05,00,19,14.10
2014,07,05,00,20,14.10
2014,07,05,00,21,14.10
2014,07,05,00,22,14.20
2014,07,05,00,23,14.20
2014,07,05,00,24,14.20
2014,07,05,00,25,14.20
2014,07,05,00,26,14.20
2014,07,05,00,27,14.20
2014,07,05,00,28,14.20
2014,07,05,00,29,14.20
2014,07,05,00,30,14.20
2014,07,05,00,31,14.20
2014,07,05,00,32,14.20
2014,07,05,00,33,14.20
2014,07,05,00,34,14.20
2014,07,05,00,35,14.20
2014,07,05,00,36,14.20
2014,07,05,00,37,14.20
2014,07,05,00,38,14.20
2014,07,05,00,39,14.20
2014,07,05,02,20,13.80
2014,07,05,02,21,13.80
2014,07,05,02,22,13.80
2014,07,05,02,23,13.80
2014,07,05,02,24,13.80
2014,07,05,02,25,13.80
2014,07,05,02,26,13.80
2014,07,05,02,27,13.80
2014,07,05,02,28,13.80
2014,07,05,02,29,13.80
2014,07,05,02,30,13.80
2014,07,05,02,31,13.80
2014,07,05,02,32,13.80
2014,07,05,02,33,13.90
2014,07,05,02,34,13.90
2014,07,05,02,35,13.90
2014,07,05,02,36,13.90
2014,07,05,02,37,13.90
2014,07,05,02,38,13.90
2014,07,05,02,39,13.90
2014,07,05,02,40,13.90
2014,07,05,02,41,13.90
2014,07,05,02,42,13.90
2014,07,05,02,43,13.90
2014,07,05,02,44,13.90
2014,07,05,02,45,13.90
2014,07,05,02,46,13.80
2014,07,05,02,47,13.80
2014,07,05,02,48,13.80
2014,07,05,02,49,13.80
2014,07,05,02,50,13.80
2014,07,05,02,51,13.80
2014,07,05,02,52,13.80
2014,07,05,02,53,13.80
2014,07,05,02,54,13.70
2014,07,05,02,55,13.70
2014,07,05,02,56,13.70
2014,07,05,02,57,13.70
2014,07,05,02,58,13.70
2014,07,05,02,59,13.70
2014,07,05,03,00,13.70
2014,07,05,03,01,13.70
2014,07,05,03,02,13.70
2014,07,05,03,03,13.70
2014,07,05,03,04,13.70
2014,07,05,03,05,13.70
2014,07,05,03,06,13.60
2014,07,05,03,07,13.60
2014,07,05,03,08,13.60
2014,07,05,03,09,13.60
2014,07,05,03,10,13.60
2014,07,05,03,11,13.60
2014,07,05,03,12,13.60
2014,07,05,03,13,13.60
2014,07,05,03,14,13.60
2014,07,05,03,15,13.60
2014,07,05,03,16,13.60
2014,07,05,03,17,13.60
2014,07,05,03,18,13.60
2014,07,05,03,19,13.60
2014,07,05,03,20,13.60
2014,07,05,03,21,13.60
2014,07,05,03,22,13.60
2014,07,05,03,23,13.60
2014,07,05,03,24,13.60
2014,07,05,03,25,13.50
2014,07,05,03,26,13.50
2014,07,05,03,27,13.50
2014,07,05,03,28,13.50
2014,07,05,03,29,13.50
2014,07,05,03,30,13.50
2014,07,05,03,31,13.50
2014,07,05,03,32,13.50
2014,07,05,03,33,13.50
2014,07,05,03,34,13.40
2014,07,05,03,35,13.40
2014,07,05,03,36,13.40
2014,07,05,03,37,13.40
2014,07,05,03,38,13.40
2014,07,05,03,39,13.40
2014,07,05,03,40,13.40
2014,07,05,03,41,13.40
2014,07,05,03,42,13.40
2014,07,05,03,43,13.40
2014,07,05,03,44,13.40
2014,07,05,03,45,13.30
2014,07,05,03,46,13.30
2014,07,05,03,47,13.30
2014,07,05,03,48,13.30
2014,07,05,03,49,13.30
2014,07,05,03,50,13.30
2014,07,05,03,51,13.30
2014,07,05,03,52,13.30
2014,07,05,03,53,13.30
2014,07,05,03,54,13.30
2014,07,05,03,55,13.30
2014,07,05,03,56,13.30
2014,07,05,03,57,13.40
2014,07,05,03,58,13.40
2014,07,05,03,59,13.40
2014,07,05,04,00,13.40
2014,07,05,04,01,13.40
2014,07,05,04,02,13.40
2014,07,05,04,03,13.40
2014,07,05,04,04,13.40
2014,07,05,04,05,13.40
2014,07,05,04,06,13.40
2014,07,05,04,07,13.40
2014,07,05,04,08,13.40
2014,07,05,04,09,13.40
2014,07,05,04,10,13.40
2014,07,05,04,11,13.40
2014,07,05,04,12,13.40
2014,07,05,04,13,13.40
2014,07,05,04,14,13.40
2014,07,05,04,15,13.40
2014,07,05,04,16,13.40
2014,07,05,04,17,13.40
2014,07,05,04,18,13.40
2014,07,05,04,19,13.40
2014,07,05,04,20,13.40
2014,07,05,04,21,13.40
2014,07,05,04,22,13.40
2014,07,05,04,23,13.50
2014,07,05,04,24,13.50
2014,07,05,04,25,13.50
2014,07,05,04,26,13.50
2014,07,05,04,27,13.50
2014,07,05,04,28,13.50
2014,07,05,04,29,13.50
2014,07,05,04,30,13.50
2014,07,05,04,31,13.40
2014,07,05,04,32,13.40
2014,07,05,04,33,13.40
2014,07,05,04,34,13.40
2014,07,05,04,35,13.40
2014,07,05,04,36,13.40
2014,07,05,04,37,13.40
2014,07,05,04,38,13.40
2014,07,05,04,39,13.40
2014,07,05,04,40,13.40
2014,07,05,04,41,13.40
2014,07,05,04,42,13.40
2014,07,05,04,43,13.40
2014,07,05,04,44,13.40
2014,07,05,04,45,13.40
2014,07,05,04,46,13.40
2014,07,05,04,47,13.40
2014,07,05,04,48,13.30
2014,07,05,04,49,13.40
2014,07,05,04,50,13.40
2014,07,05,04,51,13.40
2014,07,05,04,52,13.40
2014,07,05,04,53,13.40
2014,07,05,04,54,13.40
2014,07,05,04,55,13.40
2014,07,05,04,56,13.40
2014,07,05,04,57,13.40
2014,07,05,04,58,13.40
2014,07,05,04,59,13.40
2014,07,05,05,00,13.40
2014,07,05,05,01,13.40
2014,07,05,05,02,13.40
2014,07,05,05,03,13.40
2014,07,05,05,04,13.40
2014,07,05,05,05,13.40
2014,07,05,05,06,13.40
2014,07,05,05,07,13.40
2014,07,05,05,08,13.40
2014,07,05,05,09,13.30
2014,07,05,05,10,13.30
2014,07,05,05,11,13.40
2014,07,05,05,12,13.40
2014,07,05,05,13,13.40
2014,07,05,05,14,13.40
2014,07,05,05,15,13.40
2014,07,05,05,16,13.40
2014,07,05,05,17,13.40
2014,07,05,05,18,13.40
2014,07,05,05,19,13.40
2014,07,05,05,20,13.40
2014,07,05,05,21,13.40
2014,07,05,05,22,13.40
2014,07,05,05,23,13.40
2014,07,05,05,24,13.40
2014,07,05,05,25,13.40
2014,07,05,05,26,13.40
2014,07,05,05,27,13.40
2014,07,05,05,28,13.40
2014,07,05,05,29,13.40
2014,07,05,05,30,13.40
2014,07,05,05,31,13.40
2014,07,05,05,32,13.40
2014,07,05,05,33,13.40
2014,07,05,05,34,13.40
2014,07,05,05,35,13.40
2014,07,05,05,36,13.40
2014,07,05,05,37,13.40
2014,07,05,05,38,13.50
2014,07,05,05,39,13.50
2014,07,05,05,40,13.50
2014,07,05,05,41,13.50
2014,07,05,05,42,13.50
2014,07,05,05,43,13.50
2014,07,05,05,44,13.50
2014,07,05,05,45,13.50
2014,07,05,05,46,13.50
2014,07,05,05,47,13.50
2014,07,05,05,48,13.50
2014,07,05,05,49,13.50
2014,07,05,05,50,13.50
2014,07,05,05,51,13.60
2014,07,05,05,52,13.60
2014,07,05,05,53,13.60
2014,07,05,05,54,13.60
2014,07,05,05,55,13.60
2014,07,05,05,56,13.60
2014,07,05,05,57,13.60
2014,07,05,05,58,13.60
2014,07,05,05,59,13.60
2014,07,05,06,00,13.60
2014,07,05,06,01,13.60
2014,07,05,06,02,13.60
2014,07,05,06,03,13.60
2014,07,05,06,04,13.60
2014,07,05,06,05,13.60
2014,07,05,06,06,13.60
2014,07,05,06,07,13.60
2014,07,05,06,08,13.60
2014,07,05,06,09,13.60
2014,07,05,06,10,13.60
2014,07,05,06,11,13.60
2014,07,05,06,12,13.60
2014,07,05,06,13,13.50
2014,07,05,06,14,13.50
2014,07,05,06,15,13.50
2014,07,05,06,16,13.50
2014,07,05,06,17,13.50
2014,07,05,06,18,13.40
2014,07,05,06,19,13.40
2014,07,05,06,20,13.40
2014,07,05,06,21,13.40
2014,07,05,06,22,13.40
2014,07,05,06,23,13.40
2014,07,05,06,24,13.40
2014,07,05,06,25,13.50
2014,07,05,06,26,13.50
2014,07,05,06,27,13.50
2014,07,05,06,28,13.50
2014,07,05,06,29,13.50
2014,07,05,06,30,13.50
2014,07,05,06,31,13.50
2014,07,05,06,32,13.50
2014,07,05,06,33,13.50
2014,07,05,06,34,13.50
2014,07,05,06,35,13.60
2014,07,05,06,36,13.60
2014,07,05,06,37,13.60
2014,07,05,06,38,13.60
2014,07,05,06,39,13.60
2014,07,05,06,40,13.60
2014,07,05,06,41,13.70
2014,07,05,06,42,13.70
2014,07,05,06,43,13.70
2014,07,05,06,44,13.80
2014,07,05,06,45,13.80
2014,07,05,06,46,13.90
2014,07,05,06,47,13.90
2014,07,05,06,48,14.00
2014,07,05,06,49,14.10
2014,07,05,06,50,14.20
2014,07,05,06,51,14.20
2014,07,05,06,52,14.30
2014,07,05,06,53,14.30
2014,07,05,06,54,14.40
2014,07,05,06,55,14.40
2014,07,05,06,56,14.50
2014,07,05,06,57,14.60
2014,07,05,06,58,14.60
2014,07,05,06,59,14.70
2014,07,05,07,00,14.70
2014,07,05,07,01,14.80
2014,07,05,07,02,14.80
2014,07,05,07,03,14.90
2014,07,05,07,04,14.90
2014,07,05,07,05,14.90
2014,07,05,07,06,14.90
2014,07,05,07,07,14.90
2014,07,05,07,08,14.90
2014,07,05,07,09,14.90
2014,07,05,07,10,14.90
2014,07,05,07,11,14.90
2014,07,05,07,12,14.90
2014,07,05,07,13,14.90
2014,07,05,07,14,14.90
2014,07,05,07,15,14.90
2014,07,05,07,16,14.90
2014,07,05,07,17,14.90
2014,07,05,07,18,14.90
2014,07,05,07,19,15.00
2014,07,05,07,20,15.00
2014,07,05,07,21,15.10
2014,07,05,07,22,15.20
2014,07,05,07,23,15.20
2014,07,05,07,24,15.20
2014,07,05,07,25,15.20
2014,07,05,07,26,15.20
2014,07,05,07,27,15.30
2014,07,05,07,28,15.30
2014,07,05,07,29,15.30
2014,07,05,07,30,15.30
2014,07,05,07,31,15.30
2014,07,05,07,32,15.30
2014,07,05,07,33,15.30
2014,07,05,07,34,15.40
2014,07,05,07,35,15.40
2014,07,05,07,36,15.40
2014,07,05,07,37,15.30
2014,07,05,07,38,15.30
2014,07,05,07,39,15.30
2014,07,05,07,40,15.30
2014,07,05,07,41,15.40
2014,07,05,07,42,15.40
2014,07,05,07,43,15.40
2014,07,05,07,44,15.40
2014,07,05,07,45,15.50
2014,07,05,07,46,15.50
2014,07,05,07,47,15.50
2014,07,05,07,48,15.60
2014,07,05,07,49,15.60
2014,07,05,07,50,15.60
2014,07,05,07,51,15.60
2014,07,05,07,52,15.60
2014,07,05,07,53,15.60
2014,07,05,07,54,15.60
2014,07,05,07,55,15.60
2014,07,05,07,56,15.60
2014,07,05,07,57,15.60
2014,07,05,07,58,15.60
2014,07,05,07,59,15.60
2014,07,05,08,00,15.60
2014,07,05,08,01,15.60
2014,07,05,08,02,15.60
2014,07,05,08,03,15.60
2014,07,05,08,04,15.60
2014,07,05,08,05,15.60
2014,07,05,08,06,15.60
2014,07,05,08,07,15.60
2014,07,05,08,08,15.60
2014,07,05,08,09,15.60
2014,07,05,08,10,15.60
2014,07,05,08,11,15.50
2014,07,05,08,12,15.60
2014,07,05,08,13,15.60
2014,07,05,08,14,15.50
2014,07,05,08,15,15.50
2014,07,05,08,16,15.50
2014,07,05,08,17,15.50
2014,07,05,08,18,15.50
2014,07,05,08,19,15.40
2014,07,05,08,20,15.40
2014,07,05,08,21,15.40
2014,07,05,08,22,15.40
2014,07,05,08,23,15.30
2014,07,05,08,24,15.30
2014,07,05,08,25,15.30
2014,07,05,08,26,15.20
2014,07,05,08,27,15.20
2014,07,05,08,28,15.20
2014,07,05,08,29,15.10
2014,07,05,08,30,15.10
2014,07,05,08,31,15.10
2014,07,05,08,32,15.10
2014,07,05,08,33,15.10
2014,07,05,08,34,15.10
2014,07,05,08,35,15.10
2014,07,05,08,36,15.00
2014,07,05,08,37,15.00
2014,07,05,08,38,14.90
2014,07,05,08,39,14.90
2014,07,05,08,40,14.90
2014,07,05,08,41,14.90
2014,07,05,08,42,14.90
2014,07,05,08,43,14.90
2014,07,05,08,44,14.80
2014,07,05,08,45,14.80
2014,07,05,08,46,14.70
2014,07,05,08,47,14.70
2014,07,05,08,48,14.70
2014,07,05,08,49,14.60
2014,07,05,08,50,14.60
2014,07,05,08,51,14.50
2014,07,05,08,52,14.50
2014,07,05,08,53,14.50
2014,07,05,08,54,14.50
2014,07,05,08,55,14.50
2014,07,05,08,56,14.50
2014,07,05,08,57,14.50
2014,07,05,08,58,14.60
2014,07,05,08,59,14.60
2014,07,05,09,00,14.60
2014,07,05,09,01,14.60
2014,07,05,09,02,14.60
2014,07,05,09,03,14.70
2014,07,05,09,04,14.70
2014,07,05,09,05,14.70
2014,07,05,09,06,14.70
2014,07,05,09,07,14.70
2014,07,05,09,08,14.60
2014,07,05,09,09,14.70
2014,07,05,09,10,14.60
2014,07,05,09,11,14.60
2014,07,05,09,12,14.60
2014,07,05,09,13,14.60
2014,07,05,09,14,14.70
2014,07,05,09,15,14.70
2014,07,05,09,16,14.70
2014,07,05,09,17,14.80
2014,07,05,09,18,14.80
2014,07,05,09,19,14.80
2014,07,05,09,20,14.90
2014,07,05,09,21,15.00
2014,07,05,09,22,15.00
2014,07,05,09,23,15.10
2014,07,05,09,24,15.10
2014,07,05,09,25,15.20
2014,07,05,09,26,15.20
2014,07,05,09,27,15.20
2014,07,05,09,28,15.20
2014,07,05,09,29,15.20
2014,07,05,09,30,15.20
2014,07,05,09,31,15.20
2014,07,05,09,32,15.20
2014,07,05,09,33,15.20
2014,07,05,09,34,15.20
2014,07,05,09,35,15.10
2014,07,05,09,36,15.10
2014,07,05,09,37,15.10
2014,07,05,09,38,15.00
2014,07,05,09,39,15.00
2014,07,05,09,40,15.00
2014,07,05,09,41,14.90
2014,07,05,09,42,14.90
2014,07,05,09,43,15.00
2014,07,05,09,44,15.00
2014,07,05,09,45,15.00
2014,07,05,09,46,15.00
2014,07,05,09,47,15.00
2014,07,05,09,48,15.00
2014,07,05,09,49,14.90
2014,07,05,09,50,14.90
2014,07,05,09,51,14.80
2014,07,05,09,52,14.80
2014,07,05,09,53,14.80
2014,07,05,09,54,14.80
2014,07,05,09,55,14.80
2014,07,05,09,56,14.80
2014,07,05,09,57,14.80
2014,07,05,09,58,14.80
2014,07,05,09,59,14.80
2014,07,05,10,00,14.80
2014,07,05,10,01,14.70
2014,07,05,10,02,14.70
2014,07,05,10,03,14.60
2014,07,05,10,04,14.50
2014,07,05,10,05,14.50
2014,07,05,10,06,14.40
2014,07,05,10,07,14.40
2014,07,05,10,08,14.40
2014,07,05,10,09,14.40
2014,07,05,10,10,14.40
2014,07,05,10,11,14.40
2014,07,05,10,12,14.40
2014,07,05,10,13,14.40
2014,07,05,10,14,14.40
2014,07,05,10,15,14.30
2014,07,05,10,16,14.30
2014,07,05,10,17,14.30
2014,07,05,10,18,14.30
2014,07,05,10,19,14.30
2014,07,05,10,20,14.40
2014,07,05,10,21,14.40
2014,07,05,10,22,14.40
2014,07,05,10,23,14.50
2014,07,05,10,24,14.50
2014,07,05,10,25,14.50
2014,07,05,10,26,14.50
2014,07,05,10,27,14.50
2014,07,05,10,28,14.50
2014,07,05,10,29,14.50
2014,07,05,10,30,14.60
2014,07,05,10,31,14.60
2014,07,05,10,32,14.70
2014,07,05,10,33,14.80
2014,07,05,10,34,14.80
2014,07,05,10,35,14.90
2014,07,05,10,36,15.00
2014,07,05,10,37,15.00
2014,07,05,10,38,15.10
2014,07,05,10,39,15.20
2014,07,05,10,40,15.20
2014,07,05,10,41,15.20
2014,07,05,10,42,15.30
2014,07,05,10,43,15.30
2014,07,05,10,44,15.30
2014,07,05,10,45,15.40
2014,07,05,10,46,15.40
2014,07,05,10,47,15.40
2014,07,05,10,48,15.40
2014,07,05,10,49,15.50
2014,07,05,10,50,15.50
2014,07,05,10,51,15.60
2014,07,05,10,52,15.60
2014,07,05,10,53,15.60
2014,07,05,10,54,15.60
2014,07,05,10,55,15.60
2014,07,05,10,56,15.60
2014,07,05,10,57,15.60
2014,07,05,10,58,15.60
2014,07,05,10,59,15.70
2014,07,05,11,00,15.70
2014,07,05,11,01,15.70
2014,07,05,11,02,15.70
2014,07,05,11,03,15.70
2014,07,05,11,04,15.70
2014,07,05,11,05,15.70
2014,07,05,11,06,15.60
2014,07,05,11,07,15.60
2014,07,05,11,08,15.50
2014,07,05,11,09,15.50
2014,07,05,11,10,15.50
2014,07,05,11,11,15.40
2014,07,05,11,12,15.30
2014,07,05,11,13,15.20
2014,07,05,11,14,15.10
2014,07,05,11,15,15.10
2014,07,05,11,16,15.10
2014,07,05,11,17,15.10
2014,07,05,11,18,15.10
2014,07,05,11,19,15.00
2014,07,05,11,20,15.00
2014,07,05,11,21,15.00
2014,07,05,11,22,15.00
2014,07,05,11,23,15.00
2014,07,05,11,24,15.00
2014,07,05,11,25,14.90
2014,07,05,11,26,14.90
2014,07,05,11,27,14.90
2014,07,05,11,28,15.00
2014,07,05,11,29,15.00
2014,07,05,11,30,15.00
2014,07,05,11,31,14.90
2014,07,05,11,32,14.90
2014,07,05,11,33,14.80
2014,07,05,11,34,14.80
2014,07,05,11,35,14.70
2014,07,05,11,36,14.70
2014,07,05,11,37,14.60
2014,07,05,11,38,14.60
2014,07,05,11,39,14.60
2014,07,05,11,40,14.60
2014,07,05,11,41,14.60
2014,07,05,11,42,14.50
2014,07,05,11,43,14.50
2014,07,05,11,44,14.50
2014,07,05,11,45,14.40
2014,07,05,11,46,14.40
2014,07,05,11,47,14.40
2014,07,05,11,48,14.30
2014,07,05,11,49,14.30
2014,07,05,11,50,14.30
2014,07,05,11,51,14.30
2014,07,05,11,52,14.40
2014,07,05,11,53,14.40
2014,07,05,11,54,14.40
2014,07,05,11,55,14.50
2014,07,05,11,56,14.50
2014,07,05,11,57,14.40
2014,07,05,11,58,14.40
2014,07,05,11,59,14.40
2014,07,05,12,00,14.40
2014,07,05,12,01,14.30
2014,07,05,12,02,14.10
2014,07,05,12,03,14.00
2014,07,05,12,04,14.00
2014,07,05,12,05,13.90
2014,07,05,12,06,13.90
2014,07,05,12,07,13.80
2014,07,05,12,08,13.80
2014,07,05,12,09,13.70
2014,07,05,12,10,13.70
2014,07,05,12,11,13.70
2014,07,05,12,12,13.60
2014,07,05,12,13,13.60
2014,07,05,12,14,13.60
2014,07,05,12,15,13.60
2014,07,05,12,16,13.60
2014,07,05,12,17,13.60
2014,07,05,12,18,13.60
2014,07,05,12,19,13.60
2014,07,05,12,20,13.60
2014,07,05,12,21,13.70
2014,07,05,12,22,13.70
2014,07,05,12,23,13.80
2014,07,05,12,24,13.80
2014,07,05,12,25,13.70
2014,07,05,12,26,13.70
2014,07,05,12,27,13.70
2014,07,05,12,28,13.70
2014,07,05,12,29,13.70
2014,07,05,12,30,13.70
2014,07,05,12,31,13.70
2014,07,05,12,32,13.70
2014,07,05,12,33,13.80
2014,07,05,12,34,13.80
2014,07,05,12,35,13.80
2014,07,05,12,36,13.90
2014,07,05,12,37,13.90
2014,07,05,12,38,13.90
2014,07,05,12,39,14.00
2014,07,05,12,40,14.00
2014,07,05,12,41,14.00
2014,07,05,12,42,14.10
2014,07,05,12,43,14.10
2014,07,05,12,44,14.10
2014,07,05,12,45,14.10
2014,07,05,12,46,14.10
2014,07,05,12,47,14.10
2014,07,05,12,48,14.10
2014,07,05,12,49,14.10
2014,07,05,12,50,14.20
2014,07,05,12,51,14.20
2014,07,05,12,52,14.20
2014,07,05,12,53,14.20
2014,07,05,12,54,14.20
2014,07,05,12,55,14.30
2014,07,05,12,56,14.30
2014,07,05,12,57,14.30
2014,07,05,12,58,14.30
2014,07,05,12,59,14.40
2014,07,05,13,00,14.40
2014,07,05,13,01,14.50
2014,07,05,13,02,14.50
2014,07,05,13,03,14.60
2014,07,05,13,04,14.60
2014,07,05,13,05,14.70
2014,07,05,13,06,14.80
2014,07,05,13,07,14.80
2014,07,05,13,08,14.80
2014,07,05,13,09,14.90
2014,07,05,13,10,15.00
2014,07,05,13,11,15.00
2014,07,05,13,12,15.10
2014,07,05,13,13,15.10
2014,07,05,13,14,15.10
2014,07,05,13,15,15.10
2014,07,05,13,16,15.10
2014,07,05,13,17,15.20
2014,07,05,13,18,15.20
2014,07,05,13,19,15.20
2014,07,05,13,20,15.30
2014,07,05,13,21,15.30
2014,07,05,13,22,15.30
2014,07,05,13,23,15.40
2014,07,05,13,24,15.50
2014,07,05,13,25,15.50
2014,07,05,13,26,15.60
2014,07,05,13,27,15.60
2014,07,05,13,28,15.60
2014,07,05,13,29,15.70
2014,07,05,13,30,15.70
2014,07,05,13,31,15.70
2014,07,05,13,32,15.70
2014,07,05,13,33,15.70
2014,07,05,13,34,15.80
2014,07,05,13,35,15.80
2014,07,05,13,36,15.80
2014,07,05,13,37,15.80
2014,07,05,13,38,15.70
2014,07,05,13,39,15.70
2014,07,05,13,40,15.70
2014,07,05,13,41,15.80
2014,07,05,13,42,15.80
2014,07,05,13,43,15.70
2014,07,05,13,44,15.70
2014,07,05,13,45,15.70
2014,07,05,13,46,15.70
2014,07,05,13,47,15.70
2014,07,05,13,48,15.70
2014,07,05,13,49,15.70
2014,07,05,13,50,15.70
2014,07,05,13,51,15.70
2014,07,05,13,52,15.70
2014,07,05,13,53,15.70
2014,07,05,13,54,15.70
2014,07,05,13,55,15.70
2014,07,05,13,56,15.70
2014,07,05,13,57,15.70
2014,07,05,13,58,15.70
2014,07,05,13,59,15.70
2014,07,05,14,00,15.80
2014,07,05,14,01,15.80
2014,07,05,14,02,15.80
2014,07,05,14,03,15.80
2014,07,05,14,04,15.90
2014,07,05,14,05,15.90
2014,07,05,14,06,15.90
2014,07,05,14,07,15.90
2014,07,05,14,08,15.90
2014,07,05,14,09,16.00
2014,07,05,14,10,16.00
2014,07,05,14,11,16.10
2014,07,05,14,12,16.10
2014,07,05,14,13,16.20
2014,07,05,14,14,16.20
2014,07,05,14,15,16.30
2014,07,05,14,16,16.40
2014,07,05,14,17,16.50
2014,07,05,14,18,16.60
2014,07,05,14,19,16.70
2014,07,05,14,20,16.70
2014,07,05,14,21,16.80
2014,07,05,14,22,16.90
2014,07,05,14,23,16.90
2014,07,05,14,24,17.00
2014,07,05,14,25,17.10
2014,07,05,14,26,17.10
2014,07,05,14,27,17.20
2014,07,05,14,28,17.20
2014,07,05,14,29,17.30
2014,07,05,14,30,17.30
2014,07,05,14,31,17.40
2014,07,05,14,32,17.40
2014,07,05,14,33,17.40
2014,07,05,14,34,17.40
2014,07,05,14,35,17.40
2014,07,05,14,36,17.40
2014,07,05,14,37,17.50
2014,07,05,14,38,17.80
2014,07,05,14,39,17.80
2014,07,05,14,40,17.80
2014,07,05,14,41,17.80
2014,07,05,14,42,17.80
2014,07,05,14,43,17.90
2014,07,05,14,44,17.80
2014,07,05,14,45,17.90
2014,07,05,14,46,17.90
2014,07,05,14,47,17.90
2014,07,05,14,48,17.80
2014,07,05,14,49,17.80
2014,07,05,14,50,17.80
2014,07,05,14,51,17.80
2014,07,05,14,52,17.80
2014,07,05,14,53,17.80
2014,07,05,14,54,17.90
2014,07,05,14,55,17.90
2014,07,05,14,56,17.80
2014,07,05,14,57,17.80
2014,07,05,14,58,17.80
2014,07,05,14,59,17.80
2014,07,05,15,00,17.70
2014,07,05,15,01,17.70
2014,07,05,15,02,17.70
2014,07,05,15,03,17.70
2014,07,05,15,04,17.70
2014,07,05,15,05,17.60
2014,07,05,15,06,17.60
2014,07,05,15,07,17.60
2014,07,05,15,08,17.60
2014,07,05,15,09,17.60
2014,07,05,15,10,17.60
2014,07,05,15,11,17.50
2014,07,05,15,12,17.50
2014,07,05,15,13,17.50
2014,07,05,15,14,17.50
2014,07,05,15,15,17.40
2014,07,05,15,16,17.40
2014,07,05,15,17,17.40
2014,07,05,15,18,17.40
2014,07,05,15,19,17.40
2014,07,05,15,20,17.40
2014,07,05,15,21,17.40
2014,07,05,15,22,17.50
2014,07,05,15,23,17.60
2014,07,05,15,24,17.50
2014,07,05,15,25,17.40
2014,07,05,15,26,17.30
2014,07,05,15,27,17.10
2014,07,05,15,28,17.00
2014,07,05,15,29,16.70
2014,07,05,15,30,16.60
2014,07,05,15,31,16.40
2014,07,05,15,32,16.30
2014,07,05,15,33,16.20
2014,07,05,15,34,16.10
2014,07,05,15,35,16.00
2014,07,05,15,36,16.00
2014,07,05,15,37,16.00
2014,07,05,15,38,16.00
2014,07,05,15,39,16.00
2014,07,05,15,40,16.00
2014,07,05,15,41,16.10
2014,07,05,15,42,16.10
2014,07,05,15,43,16.10
2014,07,05,15,44,16.10
2014,07,05,15,45,16.20
2014,07,05,15,46,16.20
2014,07,05,15,47,16.20
2014,07,05,15,48,16.30
2014,07,05,15,49,16.30
2014,07,05,15,50,16.40
2014,07,05,15,51,16.40
2014,07,05,15,52,16.40
2014,07,05,15,53,16.40
2014,07,05,15,54,16.40
2014,07,05,15,55,16.50
2014,07,05,15,56,16.50
2014,07,05,15,57,16.50
2014,07,05,15,58,16.60
2014,07,05,15,59,16.70
2014,07,05,16,00,16.80
2014,07,05,16,01,16.80
2014,07,05,16,02,16.90
2014,07,05,16,03,17.00
2014,07,05,16,04,17.10
2014,07,05,16,05,17.10
2014,07,05,16,06,17.10
2014,07,05,16,07,17.10
2014,07,05,16,08,17.00
2014,07,05,16,09,17.00
2014,07,05,16,10,17.00
2014,07,05,16,11,16.90
2014,07,05,16,12,16.90
2014,07,05,16,13,16.90
2014,07,05,16,14,16.90
2014,07,05,16,15,16.80
2014,07,05,16,16,16.80
2014,07,05,16,17,16.80
2014,07,05,16,18,16.70
2014,07,05,16,19,16.70
2014,07,05,16,20,16.70
2014,07,05,16,21,16.60
2014,07,05,16,22,16.50
2014,07,05,16,23,16.50
2014,07,05,16,24,16.40
2014,07,05,16,25,16.40
2014,07,05,16,26,16.40
2014,07,05,16,27,16.40
2014,07,05,16,28,16.40
2014,07,05,16,29,16.40
2014,07,05,16,30,16.40
2014,07,05,16,31,16.40
2014,07,05,16,32,16.40
2014,07,05,16,33,16.40
2014,07,05,16,34,16.50
2014,07,05,16,35,16.50
2014,07,05,16,36,16.60
2014,07,05,16,37,16.60
2014,07,05,16,38,16.60
2014,07,05,16,39,16.60
2014,07,05,16,40,16.60
2014,07,05,16,41,16.60
2014,07,05,16,42,16.60
2014,07,05,16,43,16.60
2014,07,05,16,44,16.60
2014,07,05,16,45,16.70
2014,07,05,16,46,16.70
2014,07,05,16,47,16.80
2014,07,05,16,48,16.80
2014,07,05,16,49,16.80
2014,07,05,16,50,16.90
2014,07,05,16,51,16.90
2014,07,05,16,52,16.90
2014,07,05,16,53,16.90
2014,07,05,16,54,17.00
2014,07,05,16,55,17.00
2014,07,05,16,56,17.10
2014,07,05,16,57,17.10
2014,07,05,16,58,17.10
2014,07,05,16,59,17.20
2014,07,05,17,00,17.20
2014,07,05,17,01,17.20
2014,07,05,17,02,17.20
2014,07,05,17,03,17.20
2014,07,05,17,04,17.20
2014,07,05,17,05,17.20
2014,07,05,17,06,17.20
2014,07,05,17,07,17.20
2014,07,05,17,08,17.30
2014,07,05,17,09,17.30
2014,07,05,17,10,17.30
2014,07,05,17,11,17.30
2014,07,05,17,12,17.40
2014,07,05,17,13,17.40
2014,07,05,17,14,17.40
2014,07,05,17,15,17.50
2014,07,05,17,16,17.50
2014,07,05,17,17,17.60
2014,07,05,17,18,17.60
2014,07,05,17,19,17.60
2014,07,05,17,20,17.70
2014,07,05,17,21,17.70
2014,07,05,17,22,17.70
2014,07,05,17,23,17.60
2014,07,05,17,24,17.60
2014,07,05,17,25,17.60
2014,07,05,17,26,17.60
2014,07,05,17,27,17.70
2014,07,05,17,28,17.70
2014,07,05,17,29,17.70
2014,07,05,17,30,17.70
2014,07,05,17,31,17.60
2014,07,05,17,32,17.60
2014,07,05,17,33,17.60
2014,07,05,17,34,17.50
2014,07,05,17,35,17.50
2014,07,05,17,36,17.40
2014,07,05,17,37,17.40
2014,07,05,17,38,17.30
2014,07,05,17,39,17.30
2014,07,05,17,40,17.30
2014,07,05,17,41,17.30
2014,07,05,17,42,17.30
2014,07,05,17,43,17.30
2014,07,05,17,44,17.30
2014,07,05,17,45,17.30
2014,07,05,17,46,17.20
2014,07,05,17,47,17.20
2014,07,05,17,48,17.20
2014,07,05,17,49,17.10
2014,07,05,17,50,17.10
2014,07,05,17,51,17.00
2014,07,05,17,52,16.90
2014,07,05,17,53,16.80
2014,07,05,17,54,16.70
2014,07,05,17,55,16.60
2014,07,05,17,56,16.60
2014,07,05,17,57,16.50
2014,07,05,17,58,16.50
2014,07,05,17,59,16.40
2014,07,05,18,00,16.30
2014,07,05,18,01,16.30
2014,07,05,18,02,16.20
2014,07,05,18,03,16.20
2014,07,05,18,04,16.20
2014,07,05,18,05,16.10
2014,07,05,18,06,16.10
2014,07,05,18,07,16.10
2014,07,05,18,08,16.00
2014,07,05,18,09,16.00
2014,07,05,18,10,16.00
2014,07,05,18,11,16.00
2014,07,05,18,12,16.00
2014,07,05,18,13,16.10
2014,07,05,18,14,16.10
2014,07,05,18,15,16.10
2014,07,05,18,16,16.10
2014,07,05,18,17,16.10
2014,07,05,18,18,16.20
2014,07,05,18,19,16.20
2014,07,05,18,20,16.20
2014,07,05,18,21,16.20
2014,07,05,18,22,16.30
2014,07,05,18,23,16.30
2014,07,05,18,24,16.30
2014,07,05,18,25,16.40
2014,07,05,18,26,16.40
2014,07,05,18,27,16.50
2014,07,05,18,28,16.50
2014,07,05,18,29,16.60
2014,07,05,18,30,16.60
2014,07,05,18,31,16.60
2014,07,05,18,32,16.60
2014,07,05,18,33,16.70
2014,07,05,18,34,16.70
2014,07,05,18,35,16.70
2014,07,05,18,36,16.80
2014,07,05,18,37,16.90
2014,07,05,18,38,16.90
2014,07,05,18,39,17.00
2014,07,05,18,40,17.10
2014,07,05,18,41,17.20
2014,07,05,18,42,17.20
2014,07,05,18,43,17.30
2014,07,05,18,44,17.30
2014,07,05,18,45,17.30
2014,07,05,18,46,17.40
2014,07,05,18,47,17.40
2014,07,05,18,48,17.50
2014,07,05,18,49,17.60
2014,07,05,18,50,17.70
2014,07,05,18,51,17.80
2014,07,05,18,52,17.80
2014,07,05,18,53,17.90
2014,07,05,18,54,17.90
2014,07,05,18,55,18.00
2014,07,05,18,56,18.00
2014,07,05,18,57,18.10
2014,07,05,18,58,18.10
2014,07,05,18,59,18.20